TimeAKDT,TemperatureF,Dew PointF,Humidity,Sea Level PressureIn,VisibilityMPH,Wind Direction,Wind SpeedMPH,Gust SpeedMPH,PrecipitationIn,Events,Conditions,WindDirDegrees,DateUTC
1:16 AM,66.2,39.2,37,29.92,10.0,NE,10.4,-,N/A,,Clear,40,2013-06-13 09:16:00
1:36 AM,66.2,39.2,37,29.92,10.0,NE,8.1,-,N/A,,Clear,50,2013-06-13 09:36:00
1:56 AM,64.4,39.2,40,29.93,10.0,NE,8.1,-,N/A,,Clear,50,2013-06-13 09:56:00
2:16 AM,64.4,39.2,40,29.93,10.0,NE,8.1,-,N/A,,Clear,50,2013-06-13 10:16:00
2:36 AM,62.6,39.2,42,29.93,10.0,ENE,5.8,-,N/A,,Clear,60,2013-06-13 10:36:00
3:16 AM,60.8,39.2,45,29.94,10.0,ENE,6.9,-,N/A,,Clear,60,2013-06-13 11:16:00
3:36 AM,60.8,39.2,45,29.94,10.0,NE,8.1,-,N/A,,Clear,50,2013-06-13 11:36:00
3:56 AM,60.8,39.2,45,29.95,10.0,NE,6.9,-,N/A,,Clear,50,2013-06-13 11:56:00
4:16 AM,60.8,39.2,45,29.95,10.0,NE,8.1,-,N/A,,Clear,50,2013-06-13 12:16:00
4:36 AM,60.8,37.4,42,29.95,10.0,ENE,8.1,-,N/A,,Clear,60,2013-06-13 12:36:00
4:56 AM,59.0,37.4,45,29.96,10.0,ENE,8.1,-,N/A,,Clear,60,2013-06-13 12:56:00
5:16 AM,59.0,37.4,45,29.96,10.0,East,8.1,-,N/A,,Clear,80,2013-06-13 13:16:00
5:36 AM,57.2,37.4,48,29.96,10.0,ENE,8.1,-,N/A,,Clear,70,2013-06-13 13:36:00
5:56 AM,57.2,37.4,48,29.97,10.0,ENE,8.1,-,N/A,,Clear,60,2013-06-13 13:56:00
6:36 AM,59.0,37.4,45,29.97,10.0,ENE,9.2,-,N/A,,Mostly Cloudy,60,2013-06-13 14:36:00
6:56 AM,60.8,39.2,45,29.98,10.0,ENE,8.1,-,N/A,,Mostly Cloudy,70,2013-06-13 14:56:00
7:36 AM,60.8,39.2,45,29.98,10.0,NE,8.1,-,N/A,,Overcast,50,2013-06-13 15:36:00
7:56 AM,60.8,39.2,45,29.98,10.0,NE,9.2,-,N/A,,Overcast,50,2013-06-13 15:56:00
8:16 AM,62.6,39.2,42,29.99,10.0,NE,8.1,-,N/A,,Mostly Cloudy,40,2013-06-13 16:16:00
8:56 AM,62.6,39.2,42,29.99,10.0,NE,10.4,-,N/A,,Mostly Cloudy,50,2013-06-13 16:56:00
9:16 AM,64.4,39.2,40,30.00,10.0,NE,9.2,-,N/A,,Mostly Cloudy,50,2013-06-13 17:16:00
9:36 AM,64.4,39.2,40,30.00,10.0,NE,8.1,-,N/A,,Mostly Cloudy,50,2013-06-13 17:36:00
9:56 AM,64.4,37.4,37,30.01,9.0,NE,8.1,-,N/A,,Partly Cloudy,50,2013-06-13 17:56:00
10:16 AM,66.2,37.4,35,30.01,10.0,NE,8.1,-,N/A,,Clear,50,2013-06-13 18:16:00
10:36 AM,66.2,37.4,35,30.01,10.0,NE,8.1,-,N/A,,Clear,50,2013-06-13 18:36:00
10:56 AM,68.0,37.4,33,30.01,10.0,East,8.1,-,N/A,,Partly Cloudy,80,2013-06-13 18:56:00
11:16 AM,69.8,37.4,31,30.01,10.0,NE,9.2,-,N/A,,Partly Cloudy,50,2013-06-13 19:16:00
11:36 AM,69.8,39.2,33,30.01,10.0,ENE,9.2,-,N/A,,Partly Cloudy,70,2013-06-13 19:36:00
11:56 AM,71.6,39.2,31,30.02,10.0,ENE,9.2,-,N/A,,Mostly Cloudy,70,2013-06-13 19:56:00
12:16 PM,71.6,39.2,31,30.02,10.0,East,8.1,-,N/A,,Partly Cloudy,80,2013-06-13 20:16:00
12:36 PM,71.6,37.4,29,30.02,10.0,NE,10.4,-,N/A,,Clear,50,2013-06-13 20:36:00
1:16 PM,73.4,37.4,27,30.01,10.0,East,6.9,-,N/A,,Clear,90,2013-06-13 21:16:00
2:16 PM,75.2,39.2,27,30.01,9.0,East,8.1,-,N/A,,Clear,80,2013-06-13 22:16:00
2:56 PM,75.2,37.4,25,30.01,10.0,East,6.9,-,N/A,,Scattered Clouds,100,2013-06-13 22:56:00
3:36 PM,77.0,37.4,24,30.01,7.0,ESE,5.8,-,N/A,,Clear,120,2013-06-13 23:36:00
3:56 PM,78.8,37.4,23,30.01,10.0,ENE,4.6,-,N/A,,Partly Cloudy,70,2013-06-13 23:56:00
4:16 PM,77.0,37.4,24,30.01,10.0,NE,4.6,-,N/A,,Partly Cloudy,40,2013-06-14 00:16:00
4:36 PM,77.0,37.4,24,30.01,10.0,ENE,3.5,-,N/A,,Clear,60,2013-06-14 00:36:00
4:56 PM,78.8,37.4,23,30.01,10.0,ENE,5.8,-,N/A,,Clear,70,2013-06-14 00:56:00
5:16 PM,78.8,37.4,23,30.00,10.0,East,5.8,-,N/A,,Clear,80,2013-06-14 01:16:00
5:36 PM,78.8,39.2,24,30.00,10.0,East,5.8,-,N/A,,Clear,90,2013-06-14 01:36:00
5:56 PM,78.8,37.4,23,30.00,10.0,ENE,4.6,-,N/A,,Clear,70,2013-06-14 01:56:00
6:16 PM,78.8,37.4,23,30.00,10.0,ENE,3.5,-,N/A,,Clear,70,2013-06-14 02:16:00
6:36 PM,78.8,37.4,23,30.00,10.0,Calm,Calm,-,N/A,,Clear,0,2013-06-14 02:36:00
6:56 PM,78.8,37.4,23,29.99,10.0,SSE,4.6,-,N/A,,Clear,150,2013-06-14 02:56:00
7:16 PM,78.8,39.2,24,30.00,10.0,ENE,3.5,-,N/A,,Clear,60,2013-06-14 03:16:00
7:36 PM,78.8,39.2,24,30.00,10.0,NNE,4.6,-,N/A,,Clear,20,2013-06-14 03:36:00
7:56 PM,78.8,37.4,23,30.00,9.0,East,4.6,-,N/A,,Clear,90,2013-06-14 03:56:00
8:16 PM,78.8,37.4,23,30.00,10.0,Calm,Calm,-,N/A,,Clear,0,2013-06-14 04:16:00
10:36 PM,75.2,39.2,27,30.02,10.0,WSW,8.1,-,N/A,,Clear,250,2013-06-14 06:36:00
10:56 PM,73.4,44.6,36,30.02,10.0,West,6.9,-,N/A,,Clear,280,2013-06-14 06:56:00
11:16 PM,71.6,44.6,38,30.02,10.0,West,6.9,-,N/A,,Clear,270,2013-06-14 07:16:00
11:36 PM,71.6,44.6,38,30.03,10.0,WNW,4.6,-,N/A,,Clear,290,2013-06-14 07:36:00
11:56 PM,69.8,44.6,40,30.03,10.0,WNW,5.8,-,N/A,,Clear,290,2013-06-14 07:56:00